Regional Weather Roundup
Issued by NWS Northern Indiana

Home | Current Version | Previous Version | Text Only | Print | Product List | Glossary Off
Versions: 1 2 3 4 5 6 7 8 9 10 11 12 13 14 15 16 17 18 19 20 21 22 23 24 25 26 27 28 29 30 31 32 33 34 35 36 37 38 39 40 41 42 43 44 45 46 47 48 49 50

000
ASUS43 KIWX 251800
RWRIWX

KIWX WEATHER ROUNDUP
NATIONAL WEATHER SERVICE NORTHERN INDIANA
100 PM EST SUN JAN 25 2015

NOTE: "FAIR" INDICATES FEW OR NO CLOUDS BELOW 12,000 FEET WITH NO
SIGNIFICANT WEATHER AND/OR OBSTRUCTIONS TO VISIBILITY.

* THESE STATIONS ARE NOT UNDER NWS QUALITY CONTROL. THEY ALSO MAY NOT
  REPORT WEATHER SUCH AS PRECIPITATION OR FOG.

INZ001>027-251900-
NORTHERN INDIANA

CITY           SKY/WX    TMP DP  RH WIND       PRES   REMARKS
GARY*          LGT SNOW  34  30  86 NE17G29   29.77S WCI  23
SOUTH BEND     LGT SNOW  30  26  85 E13G18    29.78S FOG     WCI  20
6HR MIN TEMP:  30; 6HR MAX TEMP:  35; 6HR PCP:  0.02;

GOSHEN         LGT SNOW  32  29  88 E15       29.76F FOG     WCI  22
6HR MIN TEMP:  32; 6HR MAX TEMP:  35; 6HR PCP: TRACE;

ANGOLA*        CLOUDY    25  21  86 E15       29.79S WCI  12
FORT WAYNE     LGT SNOW  28  25  88 E22G32    29.76F VSB 1   WCI  14
6HR MIN TEMP:  28; 6HR MAX TEMP:  34; 6HR PCP:  0.03;


$$
INZ028>050-251900-
CENTRAL INDIANA

CITY           SKY/WX    TMP DP  RH WIND       PRES   REMARKS
LAFAYETTE      LGT SNOW  33  33 100 NE9       29.67F FOG     WCI  25
6HR MIN TEMP:  32; 6HR MAX TEMP:  35; 6HR PCP:  0.08;

KOKOMO*        CLOUDY    34  30  86 E13       29.68S WCI  25
6HR MIN TEMP:  34; 6HR MAX TEMP:  34; 6HR PCP:  0.16;

MUNCIE*        LGT RAIN  35  33  92 E10       29.67F FOG     WCI  27
6HR MIN TEMP:  33; 6HR MAX TEMP:  35; 6HR PCP:  0.08;

INDIANAPOLIS   CLOUDY    35  32  88 E8        29.64F WCI  29
6HR MIN TEMP:  32; 6HR MAX TEMP:  35; 6HR PCP: TRACE;


$$
MIZ043>046-050>051-056>058-064>065-071>073-077>080-251900-
SOUTHWEST LOWER MICHIGAN

CITY           SKY/WX    TMP DP  RH WIND       PRES   REMARKS
BATTLE CREEK   CLOUDY    27  14  58 NE18G25   29.84S WCI  14
6HR MIN TEMP:  27; 6HR MAX TEMP:  34; 6HR PCP: TRACE;

BENTON HARBOR  CLOUDY    26  23  88 NE13G23   29.81S FOG     WCI  15
6HR MIN TEMP:  26; 6HR MAX TEMP:  34; 6HR PCP: TRACE;

COLDWATER*     LGT SNOW  26  22  85 NE14G21   29.81S WCI  14
6HR MIN TEMP:  26; 6HR MAX TEMP:  33;

HILLSDALE*     LGT SNOW  24  21  86 E15G21    29.81F WCI  12
6HR MIN TEMP:  24; 6HR MAX TEMP:  34;

HOLLAND        CLOUDY    26  14  60 E14       29.88S WCI  14
6HR MIN TEMP:  26; 6HR MAX TEMP:  32;

GRAND RAPIDS   PTSUNNY   22  14  71 NE16      29.90S WCI   8
6HR MIN TEMP:  21; 6HR MAX TEMP:  27;

KALAMAZOO      LGT SNOW  27  19  72 NE12G17   29.84S WCI  17
6HR MIN TEMP:  26; 6HR MAX TEMP:  32; 6HR PCP: TRACE;

STURGIS*       LGT SNOW  27  25  93 NE17      29.79S WCI  14
THREE RIVERS*  LGT SNOW  27  24  86 NE14G22   29.81S WCI  16
6HR MIN TEMP:  27; 6HR MAX TEMP:  34;


$$
OHZ001>008-015>018-024>025-251900-
NORTHWEST OHIO

CITY           SKY/WX    TMP DP  RH WIND       PRES   REMARKS
DEFIANCE       LGT SNOW  27  22  81 NE15G22   29.81F WCI  15
6HR MIN TEMP:  26; 6HR MAX TEMP:  35; 6HR PCP: TRACE;

FINDLAY        LGT SNOW  28  23  81 NE17      29.79S WCI  16
6HR MIN TEMP:  28; 6HR MAX TEMP:  36; 6HR PCP: TRACE;

TOLEDO EXPRESS LGT SNOW  24  20  84 E21G28    29.84F FOG     WCI   9
6HR MIN TEMP:  24; 6HR MAX TEMP:  34; 6HR PCP:  0.03;

TOLEDO METCALF LGT SNOW  24  18  77 NE20G28   29.86F WCI  10
6HR MIN TEMP:  24; 6HR MAX TEMP:  35; 6HR PCP:  0.01;

LIMA           LGT SNOW  32  28  85 NE15      29.75F FOG     WCI  22
6HR MIN TEMP:  31; 6HR MAX TEMP:  36; 6HR PCP:  0.01;


$$
AND FOR LAKE MICHIGAN COASTAL AND OPEN LAKE BUOY OBSERVATIONS

STATION/POSITION TEMP    WIND        PRES    VSBY  WAVE
                 AIR SEA DIR/SP/G                  HT/PER
                 (F)     (DEG/KT/KT) (MB)    (MI)  (FT/S)
CALUMET HARBOR    31      30/ 19/ 25   N/A
MICHIGAN CITY     31      30/ 17/ 21   N/A
SAINT JOSEPH      27      20/  6/ 17 1010.2F

$$
&&


USA.gov is the U.S. government's official web portal to all federal, state and local government web resources and services.